Frenchville, ME

10:30 PM EDT on May 26, 2017 (GMT -0400)
Northern Aroostook Regional

Weather History for KFVE - January, 2013

Change the Weather History Date:

Saturday, January 5, 2013

  Actual Average Record
Temperature  
Mean Temperature 8 °F 10 °F  
Max Temperature 19 °F 18 °F 42 °F (2007)
Min Temperature -3 °F 2 °F -10 °F (2015)
Degree Days  
Heating Degree Days 57    
Month to date heating degree days 306  
Since 1 July heating degree days 3717  
Cooling Degree Days 0    
Month to date cooling degree days 0  
Year to date cooling degree days 0  
Moisture  
Dew Point 6 °F    
Average Humidity 74    
Maximum Humidity 93    
Minimum Humidity 51    
Precipitation  
Precipitation 0.01 in 0.12 in 0.11 in (2007)
Month to date precipitation 0.02 0.62  
Year to date precipitation 0.02 0.62  
Sea Level Pressure  
Sea Level Pressure 29.77 in    
Wind  
Wind Speed 12 mph (WNW)    
Max Wind Speed 33 mph    
Max Gust Speed 43 mph    
Visibility 6 miles    
Events Snow    
T = Trace of Precipitation, MM = Missing Value Source: NWS Daily Summary

Daily Weather History Graph

Daily Weather History Graph

Search for Another Location

Airport or City:

Trip Planner

Search our weather history database for the weather conditions in past years. The results will help you decide how hot, cold, wet, or windy it might be!

Date:

Astronomy

Jan. 05, 2013 Rise Set
Actual Time 7:19 AM EST 3:58 PM EST
Civil Twilight 6:44 AM EST 4:33 PM EST
Nautical Twilight 6:05 AM EST 5:12 PM EST
Astronomical Twilight 5:28 AM EST 5:49 PM EST
Moon 12:07 AM EST (1/5) 10:58 AM EST (1/5)
Length of Visible Light 9h 48m
Length of Day
8h 38m
Last Quarter, 44% of the Moon is Illuminated
Jan 5
Last Quarter
Jan 11
New
Jan 18
First Quarter
Jan 26
Full
Feb 3
Last Quarter

Hourly Weather History & Observations

Time (EST) Temp. Windchill Dew Point Humidity Pressure Visibility Wind Dir Wind Speed Gust Speed Precip Events Conditions
12:53 AM 19.0 °F 12.3 °F 12.9 °F 77% 29.53 in 10.0 mi West 4.6 mph - N/A   Overcast
1:53 AM 19.0 °F 12.3 °F 14.0 °F 81% 29.54 in 7.0 mi SW 4.6 mph - 0.00 in Snow Light Snow
2:23 AM 19.4 °F 12.8 °F 15.8 °F 86% 29.49 in 1.8 mi WSW 4.6 mph - 0.00 in Snow Light Snow
2:32 AM 19.4 °F 14.3 °F 15.8 °F 86% 29.50 in 1.5 mi WSW 3.5 mph - 0.00 in Snow Light Snow
2:44 AM 19.4 °F - 15.8 °F 86% 29.50 in 2.0 mi Calm Calm - 0.00 in Snow Light Snow
2:53 AM 19.0 °F - 16.0 °F 88% 29.55 in 2.0 mi Calm Calm - 0.00 in Snow Light Snow
3:10 AM 17.6 °F 10.7 °F 15.8 °F 93% 29.50 in 2.5 mi WNW 4.6 mph - 0.00 in Snow Light Snow
3:23 AM 19.4 °F 11.5 °F 15.8 °F 86% 29.51 in 1.8 mi WNW 5.8 mph - 0.00 in Snow Light Snow
3:34 AM 19.4 °F 12.8 °F 15.8 °F 86% 29.51 in 2.0 mi WNW 4.6 mph - 0.00 in Snow Light Snow
3:53 AM 19.0 °F 9.0 °F 16.0 °F 88% 29.56 in 1.5 mi WNW 8.1 mph - 0.01 in Snow Light Snow
4:17 AM 19.4 °F 10.4 °F 15.8 °F 86% 29.52 in 2.0 mi West 6.9 mph - 0.00 in Snow Light Snow
4:29 AM 19.4 °F 10.4 °F 15.8 °F 86% 29.52 in 3.0 mi West 6.9 mph - 0.00 in Snow Light Snow
4:53 AM 18.0 °F 9.8 °F 16.0 °F 92% 29.58 in 7.0 mi West 5.8 mph - 0.00 in Snow Light Snow
5:24 AM 19.4 °F 11.5 °F 15.8 °F 86% 29.56 in 2.0 mi WNW 5.8 mph - 0.00 in Snow Light Snow
5:36 AM 17.6 °F 8.2 °F 15.8 °F 93% 29.57 in 2.5 mi NW 6.9 mph - 0.00 in Snow Light Snow
5:46 AM 17.6 °F 7.3 °F 15.8 °F 93% 29.58 in 1.5 mi NW 8.1 mph - 0.00 in Snow Light Snow
5:50 AM 19.4 °F 8.6 °F 15.8 °F 86% 29.59 in 1.0 mi NNW 9.2 mph - 0.00 in Snow Light Snow
5:53 AM 18.0 °F 1.7 °F 15.1 °F 88% 29.64 in 1.0 mi NNW 19.6 mph 25.3 mph 0.00 in Snow Light Snow
6:03 AM 17.6 °F 0.9 °F 12.2 °F 79% 29.61 in 1.8 mi NNW 20.7 mph 34.5 mph 0.00 in Snow Light Snow
6:13 AM 15.8 °F -5.2 °F 10.4 °F 79% 29.62 in 1.2 mi NNW 33.4 mph 42.6 mph 0.00 in Snow Light Snow
6:19 AM 15.8 °F -0.6 °F 8.6 °F 73% 29.62 in 1.8 mi NW 18.4 mph 42.6 mph 0.00 in Snow Light Snow
6:22 AM 15.8 °F -0.2 °F 8.6 °F 73% 29.63 in 3.0 mi NW 17.3 mph 39.1 mph 0.00 in Snow Light Snow
6:53 AM 14.0 °F -3.0 °F 7.0 °F 74% 29.72 in 8.0 mi WNW 18.4 mph 28.8 mph 0.00 in   Overcast
7:42 AM 12.2 °F -5.3 °F 3.2 °F 67% 29.74 in 10.0 mi NW 18.4 mph 24.2 mph 0.00 in   Overcast
7:53 AM 10.9 °F -7.9 °F 3.0 °F 70% 29.80 in 10.0 mi NW 20.7 mph 26.5 mph 0.00 in   Overcast
8:03 AM 10.4 °F -6.6 °F 1.4 °F 67% 29.76 in 10.0 mi NW 16.1 mph 27.6 mph N/A   Mostly Cloudy
8:12 AM 10.4 °F -8.2 °F 1.4 °F 67% 29.77 in 10.0 mi NW 19.6 mph 24.2 mph N/A   Scattered Clouds
8:53 AM 10.0 °F -9.1 °F -2.0 °F 58% 29.88 in 10.0 mi NW 20.7 mph 32.2 mph N/A   Scattered Clouds
9:53 AM 9.0 °F -8.5 °F -0.9 °F 64% 29.93 in 9.0 mi NW 16.1 mph 31.1 mph N/A   Mostly Cloudy
10:30 AM 8.6 °F -11.4 °F -4.0 °F 57% 29.90 in 10.0 mi NW 21.9 mph 31.1 mph N/A   Mostly Cloudy
10:53 AM 9.0 °F -11.4 °F -4.0 °F 56% 29.96 in 7.0 mi NW 23.0 mph 34.5 mph N/A   Mostly Cloudy
11:53 AM 9.0 °F -12.2 °F -4.0 °F 56% 29.98 in 9.0 mi WNW 25.3 mph 36.8 mph N/A   Scattered Clouds
12:53 PM 10.0 °F -10.8 °F -5.1 °F 51% 30.00 in 10.0 mi WNW 25.3 mph 33.4 mph N/A   Clear
1:53 PM 10.0 °F -8.6 °F -5.1 °F 51% 30.02 in 9.0 mi WNW 19.6 mph 33.4 mph N/A   Clear
2:53 PM 9.0 °F -10.0 °F -5.1 °F 53% 30.05 in 10.0 mi WNW 19.6 mph 34.5 mph N/A   Clear
3:53 PM 7.0 °F -7.5 °F -5.1 °F 58% 30.09 in 10.0 mi WNW 10.4 mph - N/A   Clear
4:53 PM 5.0 °F -10.0 °F -6.0 °F 61% 30.11 in 10.0 mi WNW 10.4 mph - N/A   Clear
5:53 PM 3.9 °F -9.4 °F -7.1 °F 60% 30.13 in 10.0 mi WNW 8.1 mph - N/A   Clear
6:53 PM 3.0 °F -10.5 °F -7.1 °F 63% 30.16 in 10.0 mi WNW 8.1 mph - N/A   Clear
7:53 PM 1.9 °F -9.2 °F -8.0 °F 63% 30.17 in 10.0 mi WNW 5.8 mph - N/A   Clear
8:53 PM 1.9 °F -7.6 °F -7.1 °F 66% 30.16 in 10.0 mi NW 4.6 mph - N/A   Clear
9:53 PM 1.9 °F -7.6 °F -7.1 °F 66% 30.17 in 10.0 mi West 4.6 mph - N/A   Clear
10:53 PM -0.9 °F -8.9 °F -7.1 °F 75% 30.16 in 10.0 mi SW 3.5 mph - N/A   Clear
11:53 PM -2.0 °F -12.2 °F -7.1 °F 79% 30.15 in 10.0 mi SSW 4.6 mph - N/A   Clear